Midland International Airport
KMAF : now visible

Airfield :











YOU CAN JOIN US ON...

 
LOGIN :

Register | Disclaimer

   EN    FR    IT 

 









Legend :    VFR   Marginal VFR   IFR   Intensive IFR   Very Intensive IFR
Visi :
Ceiling :
>= 8 km
>= 3000ft
5 to 8 km
1000 to 3000 ft
1500m to 5 km
500 to 1000 ft
800 to 1500m
200 to 500 ft
< 800m
< 200 ft
Symbols :   Thunderstorms  Fog  Heavy snow  Heavy precipitations  Wind > 20 kt






- Airport Elevation : 2871 ft
- IATA code : MAF


KMAF - Midland International

CURRENT METAR :
  • 051853Z 13009G16KT 10SM CLR 37/08 A3001 RMK AO2 SLP106 T03670083

EXPIRED METARs :
  • 051753Z 16011G16KT 10SM CLR 36/09 A3003 RMK AO2 SLP112 T03560094 10361 20250 58003
  • 051653Z 16013G20KT 10SM CLR 34/11 A3004 RMK AO2 SLP115 T03440106

TAF KMAF
Valid from the 05 at 18:00 until the 06 at 18:00 UTC


051720Z 0518/0618 17019G26KT P6SM SKC
FM060200 16013KT P6SM FEW200
FM061600 17018G25KT P6SM SKC
KZFW FIR / North America



MET'MAP, your aeronautical weather chart ! - Copyright ORBIFLY December 2007 - Disclaimer

ORBIFLY MET'MAP TEAM :

Programming & Development : Alexandra Zaïnal
Concept & original design : Baudouin d'Aumeries
Assistance for programming : Marc-Olivier Méhu
Technical & hardware support : Manuel Goepfert

Contact : metmap@orbifly.com




SOURCES & CREDITS :

   NOAA       Earth
Advisory